owner,sensor,date,latitude,longitude,relative_humidity,qcFlag 
DISL,ioos:station:DISL:MBLA:1,2015-03-01T00:00:00Z,30.4367,-88.0117,83.9,1111122 
DISL,ioos:station:DISL:MBLA:1,2015-03-01T00:30:00Z,30.4367,-88.0117,79.78,1111122 
DISL,ioos:station:DISL:MBLA:1,2015-03-01T01:00:00Z,30.4367,-88.0117,84.6,1111122 
DISL,ioos:station:DISL:MBLA:1,2015-03-01T01:30:00Z,30.4367,-88.0117,82.1,1111122 
DISL,ioos:station:DISL:MBLA:1,2015-03-01T02:00:00Z,30.4367,-88.0117,85.2,1111122 
DISL,ioos:station:DISL:MBLA:1,2015-03-01T02:30:00Z,30.4367,-88.0117,82.6,1111122 
DISL,ioos:station:DISL:MBLA:1,2015-03-01T03:00:00Z,30.4367,-88.0117,85.9,1111122 
DISL,ioos:station:DISL:MBLA:1,2015-03-01T03:30:00Z,30.4367,-88.0117,86.9,1111122 
DISL,ioos:station:DISL:MBLA:1,2015-03-01T04:00:00Z,30.4367,-88.0117,86.2,1111122 
DISL,ioos:station:DISL:MBLA:1,2015-03-01T04:30:00Z,30.4367,-88.0117,88.0,1111122 
DISL,ioos:station:DISL:MBLA:1,2015-03-01T05:00:00Z,30.4367,-88.0117,91.8,1111122 
DISL,ioos:station:DISL:MBLA:1,2015-03-01T05:30:00Z,30.4367,-88.0117,95.8,1111122 
DISL,ioos:station:DISL:MBLA:1,2015-03-01T06:00:00Z,30.4367,-88.0117,96.9,1111122 
DISL,ioos:station:DISL:MBLA:1,2015-03-01T06:30:00Z,30.4367,-88.0117,98.6,1111122 
DISL,ioos:station:DISL:MBLA:1,2015-03-01T07:00:00Z,30.4367,-88.0117,100.0,1111122 
DISL,ioos:station:DISL:MBLA:1,2015-03-01T07:30:00Z,30.4367,-88.0117,100.0,1111122 
DISL,ioos:station:DISL:MBLA:1,2015-03-01T08:00:00Z,30.4367,-88.0117,100.0,1111122 
DISL,ioos:station:DISL:MBLA:1,2015-03-01T08:30:00Z,30.4367,-88.0117,100.0,1111122 
DISL,ioos:station:DISL:MBLA:1,2015-03-01T09:00:00Z,30.4367,-88.0117,100.0,1111122 
DISL,ioos:station:DISL:MBLA:1,2015-03-01T09:30:00Z,30.4367,-88.0117,100.0,1111122 
DISL,ioos:station:DISL:MBLA:1,2015-03-01T10:00:00Z,30.4367,-88.0117,100.0,1111122 
DISL,ioos:station:DISL:MBLA:1,2015-03-01T10:30:00Z,30.4367,-88.0117,100.0,1111122 
DISL,ioos:station:DISL:MBLA:1,2015-03-01T11:00:00Z,30.4367,-88.0117,100.0,1111122 
DISL,ioos:station:DISL:MBLA:1,2015-03-01T11:30:00Z,30.4367,-88.0117,100.0,1111122 
DISL,ioos:station:DISL:MBLA:1,2015-03-01T12:00:00Z,30.4367,-88.0117,100.0,1111122 
DISL,ioos:station:DISL:MBLA:1,2015-03-01T12:30:00Z,30.4367,-88.0117,100.0,1111122 
DISL,ioos:station:DISL:MBLA:1,2015-03-05T20:00:00Z,30.4367,-88.0117,100.0,1111122 
DISL,ioos:station:DISL:MBLA:1,2015-03-05T20:30:00Z,30.4367,-88.0117,100.0,1111122 
DISL,ioos:station:DISL:MBLA:1,2015-03-05T22:00:00Z,30.4367,-88.0117,100.0,1111122 
DISL,ioos:station:DISL:MBLA:1,2015-03-05T22:30:00Z,30.4367,-88.0117,100.0,1111122 
DISL,ioos:station:DISL:MBLA:1,2015-03-05T23:00:00Z,30.4367,-88.0117,98.0,1111122 
DISL,ioos:station:DISL:MBLA:1,2015-03-05T23:30:00Z,30.4367,-88.0117,95.8,1111122 
DISL,ioos:station:DISL:MBLA:1,2015-03-06T00:00:00Z,30.4367,-88.0117,97.7,1111122 
DISL,ioos:station:DISL:MBLA:1,2015-03-06T00:30:00Z,30.4367,-88.0117,99.7,1111122 
DISL,ioos:station:DISL:MBLA:1,2015-03-06T01:00:00Z,30.4367,-88.0117,98.7,1111122 
DISL,ioos:station:DISL:MBLA:1,2015-03-06T01:30:00Z,30.4367,-88.0117,96.1,1111122 
DISL,ioos:station:DISL:MBLA:1,2015-03-06T02:00:00Z,30.4367,-88.0117,95.4,1111122 
DISL,ioos:station:DISL:MBLA:1,2015-03-06T02:30:00Z,30.4367,-88.0117,93.9,1111122 
DISL,ioos:station:DISL:MBLA:1,2015-03-06T03:00:00Z,30.4367,-88.0117,93.4,1111122 
DISL,ioos:station:DISL:MBLA:1,2015-03-06T03:30:00Z,30.4367,-88.0117,92.6,1111122 
DISL,ioos:station:DISL:MBLA:1,2015-03-06T04:00:00Z,30.4367,-88.0117,92.7,1111122 
DISL,ioos:station:DISL:MBLA:1,2015-03-06T04:30:00Z,30.4367,-88.0117,90.8,1111122 
DISL,ioos:station:DISL:MBLA:1,2015-03-06T05:00:00Z,30.4367,-88.0117,90.9,1111122 
DISL,ioos:station:DISL:MBLA:1,2015-03-06T05:30:00Z,30.4367,-88.0117,91.9,1111122 
DISL,ioos:station:DISL:MBLA:1,2015-03-06T06:00:00Z,30.4367,-88.0117,95.8,1111122 
DISL,ioos:station:DISL:MBLA:1,2015-03-06T06:30:00Z,30.4367,-88.0117,89.6,1111122 
DISL,ioos:station:DISL:MBLA:1,2015-03-06T07:00:00Z,30.4367,-88.0117,93.2,1111122 
DISL,ioos:station:DISL:MBLA:1,2015-03-06T07:30:00Z,30.4367,-88.0117,91.1,1111122 
DISL,ioos:station:DISL:MBLA:1,2015-03-06T08:00:00Z,30.4367,-88.0117,92.7,1111122 
DISL,ioos:station:DISL:MBLA:1,2015-03-06T08:30:00Z,30.4367,-88.0117,93.6,1111122 
DISL,ioos:station:DISL:MBLA:1,2015-03-06T09:00:00Z,30.4367,-88.0117,92.6,1111122 
DISL,ioos:station:DISL:MBLA:1,2015-03-06T09:30:00Z,30.4367,-88.0117,81.5,1111122 
DISL,ioos:station:DISL:MBLA:1,2015-03-06T10:00:00Z,30.4367,-88.0117,87.2,1111122 
DISL,ioos:station:DISL:MBLA:1,2015-03-06T10:30:00Z,30.4367,-88.0117,86.1,1111122 
DISL,ioos:station:DISL:MBLA:1,2015-03-06T11:00:00Z,30.4367,-88.0117,85.4,1111122 
DISL,ioos:station:DISL:MBLA:1,2015-03-06T11:30:00Z,30.4367,-88.0117,86.7,1111122 
DISL,ioos:station:DISL:MBLA:1,2015-03-06T12:00:00Z,30.4367,-88.0117,90.6,1111122 
DISL,ioos:station:DISL:MBLA:1,2015-03-06T12:30:00Z,30.4367,-88.0117,86.1,1111122 
DISL,ioos:station:DISL:MBLA:1,2015-03-06T13:00:00Z,30.4367,-88.0117,87.6,1111122 
DISL,ioos:station:DISL:MBLA:1,2015-03-06T13:30:00Z,30.4367,-88.0117,83.0,1111122 
DISL,ioos:station:DISL:MBLA:1,2015-03-06T14:00:00Z,30.4367,-88.0117,84.3,1111122 
DISL,ioos:station:DISL:MBLA:1,2015-03-06T14:30:00Z,30.4367,-88.0117,84.5,1111122 
DISL,ioos:station:DISL:MBLA:1,2015-03-06T15:00:00Z,30.4367,-88.0117,79.52,1111122 
DISL,ioos:station:DISL:MBLA:1,2015-03-06T15:30:00Z,30.4367,-88.0117,77.82,1111122 
DISL,ioos:station:DISL:MBLA:1,2015-03-06T16:00:00Z,30.4367,-88.0117,69.15,1111122 
DISL,ioos:station:DISL:MBLA:1,2015-03-06T16:30:00Z,30.4367,-88.0117,68.77,1111122 
DISL,ioos:station:DISL:MBLA:1,2015-03-06T17:00:00Z,30.4367,-88.0117,61.84,1111122 
DISL,ioos:station:DISL:MBLA:1,2015-03-06T17:30:00Z,30.4367,-88.0117,56.88,1111122 
DISL,ioos:station:DISL:MBLA:1,2015-03-06T18:00:00Z,30.4367,-88.0117,52.22,1111122 
DISL,ioos:station:DISL:MBLA:1,2015-03-06T18:30:00Z,30.4367,-88.0117,50.93,1111122 
DISL,ioos:station:DISL:MBLA:1,2015-03-06T19:00:00Z,30.4367,-88.0117,43.01,1111122 
DISL,ioos:station:DISL:MBLA:1,2015-03-06T19:30:00Z,30.4367,-88.0117,42.6,1111122 
DISL,ioos:station:DISL:MBLA:1,2015-03-06T20:00:00Z,30.4367,-88.0117,43.58,1111122 
DISL,ioos:station:DISL:MBLA:1,2015-03-06T20:30:00Z,30.4367,-88.0117,46.19,1111122 
DISL,ioos:station:DISL:MBLA:1,2015-03-06T21:00:00Z,30.4367,-88.0117,33.06,1111122 
DISL,ioos:station:DISL:MBLA:1,2015-03-06T21:30:00Z,30.4367,-88.0117,37.36,1111122 
DISL,ioos:station:DISL:MBLA:1,2015-03-06T22:00:00Z,30.4367,-88.0117,31.59,1111122 
DISL,ioos:station:DISL:MBLA:1,2015-03-06T22:30:00Z,30.4367,-88.0117,31.69,1111122 
DISL,ioos:station:DISL:MBLA:1,2015-03-06T23:00:00Z,30.4367,-88.0117,41.36,1111122 
DISL,ioos:station:DISL:MBLA:1,2015-03-06T23:30:00Z,30.4367,-88.0117,38.99,1111122 
DISL,ioos:station:DISL:MBLA:1,2015-03-07T00:00:00Z,30.4367,-88.0117,39.46,1111122 
DISL,ioos:station:DISL:MBLA:1,2015-03-07T00:30:00Z,30.4367,-88.0117,42.86,1111122 
DISL,ioos:station:DISL:MBLA:1,2015-03-07T01:00:00Z,30.4367,-88.0117,45.34,1111122 
DISL,ioos:station:DISL:MBLA:1,2015-03-07T01:30:00Z,30.4367,-88.0117,49.24,1111122 
DISL,ioos:station:DISL:MBLA:1,2015-03-07T02:00:00Z,30.4367,-88.0117,42.32,1111122 
DISL,ioos:station:DISL:MBLA:1,2015-03-07T02:30:00Z,30.4367,-88.0117,41.0,1111122 
DISL,ioos:station:DISL:MBLA:1,2015-03-07T03:00:00Z,30.4367,-88.0117,38.79,1111122 
DISL,ioos:station:DISL:MBLA:1,2015-03-07T03:30:00Z,30.4367,-88.0117,42.36,1111122 
DISL,ioos:station:DISL:MBLA:1,2015-03-07T04:00:00Z,30.4367,-88.0117,44.13,1111122 
DISL,ioos:station:DISL:MBLA:1,2015-03-07T04:30:00Z,30.4367,-88.0117,45.04,1111122 
DISL,ioos:station:DISL:MBLA:1,2015-03-07T05:00:00Z,30.4367,-88.0117,49.56,1111122 
DISL,ioos:station:DISL:MBLA:1,2015-03-07T05:30:00Z,30.4367,-88.0117,46.81,1111122 
DISL,ioos:station:DISL:MBLA:1,2015-03-07T06:00:00Z,30.4367,-88.0117,49.29,1111122 
DISL,ioos:station:DISL:MBLA:1,2015-03-07T06:30:00Z,30.4367,-88.0117,54.76,1111122 
DISL,ioos:station:DISL:MBLA:1,2015-03-07T07:00:00Z,30.4367,-88.0117,53.78,1111122 
DISL,ioos:station:DISL:MBLA:1,2015-03-07T07:30:00Z,30.4367,-88.0117,54.87,1111122 
DISL,ioos:station:DISL:MBLA:1,2015-03-07T08:00:00Z,30.4367,-88.0117,55.89,1111122 
DISL,ioos:station:DISL:MBLA:1,2015-03-07T08:30:00Z,30.4367,-88.0117,59.42,1111122 
DISL,ioos:station:DISL:MBLA:1,2015-03-07T09:00:00Z,30.4367,-88.0117,52.67,1111122 
DISL,ioos:station:DISL:MBLA:1,2015-03-07T09:30:00Z,30.4367,-88.0117,56.77,1111122 
DISL,ioos:station:DISL:MBLA:1,2015-03-07T10:00:00Z,30.4367,-88.0117,59.56,1111122 
DISL,ioos:station:DISL:MBLA:1,2015-03-07T10:30:00Z,30.4367,-88.0117,59.35,1111122 
DISL,ioos:station:DISL:MBLA:1,2015-03-07T11:00:00Z,30.4367,-88.0117,64.38,1111122 
DISL,ioos:station:DISL:MBLA:1,2015-03-07T11:30:00Z,30.4367,-88.0117,62.79,1111122 
DISL,ioos:station:DISL:MBLA:1,2015-03-07T12:00:00Z,30.4367,-88.0117,61.39,1111122 
DISL,ioos:station:DISL:MBLA:1,2015-03-07T12:30:00Z,30.4367,-88.0117,61.7,1111122 
DISL,ioos:station:DISL:MBLA:1,2015-03-07T13:00:00Z,30.4367,-88.0117,59.29,1111122 
DISL,ioos:station:DISL:MBLA:1,2015-03-07T13:30:00Z,30.4367,-88.0117,61.02,1111122 
DISL,ioos:station:DISL:MBLA:1,2015-03-07T14:00:00Z,30.4367,-88.0117,59.65,1111122 
DISL,ioos:station:DISL:MBLA:1,2015-03-07T14:30:00Z,30.4367,-88.0117,57.77,1111122 
DISL,ioos:station:DISL:MBLA:1,2015-03-07T15:00:00Z,30.4367,-88.0117,53.39,1111122 
DISL,ioos:station:DISL:MBLA:1,2015-03-07T15:30:00Z,30.4367,-88.0117,52.81,1111122 
DISL,ioos:station:DISL:MBLA:1,2015-03-07T16:00:00Z,30.4367,-88.0117,62.2,1111122 
DISL,ioos:station:DISL:MBLA:1,2015-03-07T16:30:00Z,30.4367,-88.0117,57.18,1111122 
DISL,ioos:station:DISL:MBLA:1,2015-03-07T17:00:00Z,30.4367,-88.0117,54.56,1111122 
DISL,ioos:station:DISL:MBLA:1,2015-03-07T17:30:00Z,30.4367,-88.0117,53.3,1111122 
DISL,ioos:station:DISL:MBLA:1,2015-03-07T18:00:00Z,30.4367,-88.0117,50.08,1111122 
DISL,ioos:station:DISL:MBLA:1,2015-03-07T18:30:00Z,30.4367,-88.0117,57.23,1111122 
DISL,ioos:station:DISL:MBLA:1,2015-03-07T19:00:00Z,30.4367,-88.0117,57.05,1111122 
DISL,ioos:station:DISL:MBLA:1,2015-03-07T19:30:00Z,30.4367,-88.0117,57.39,1111122 
DISL,ioos:station:DISL:MBLA:1,2015-03-07T20:00:00Z,30.4367,-88.0117,53.22,1111122 
DISL,ioos:station:DISL:MBLA:1,2015-03-07T20:30:00Z,30.4367,-88.0117,53.21,1111122 
DISL,ioos:station:DISL:MBLA:1,2015-03-07T21:00:00Z,30.4367,-88.0117,45.07,1111122 
DISL,ioos:station:DISL:MBLA:1,2015-03-07T21:30:00Z,30.4367,-88.0117,35.57,1111122 
DISL,ioos:station:DISL:MBLA:1,2015-03-07T22:00:00Z,30.4367,-88.0117,52.92,1111122 
DISL,ioos:station:DISL:MBLA:1,2015-03-07T22:30:00Z,30.4367,-88.0117,63.91,1111122 
DISL,ioos:station:DISL:MBLA:1,2015-03-07T23:00:00Z,30.4367,-88.0117,70.73,1111122 
DISL,ioos:station:DISL:MBLA:1,2015-03-07T23:30:00Z,30.4367,-88.0117,76.0,1111122 
DISL,ioos:station:DISL:MBLA:1,2015-03-08T00:00:00Z,30.4367,-88.0117,76.31,1111122 
DISL,ioos:station:DISL:MBLA:1,2015-03-08T00:30:00Z,30.4367,-88.0117,77.08,1111122 
DISL,ioos:station:DISL:MBLA:1,2015-03-08T01:00:00Z,30.4367,-88.0117,77.5,1111122 
DISL,ioos:station:DISL:MBLA:1,2015-03-08T01:30:00Z,30.4367,-88.0117,76.75,1111122 
DISL,ioos:station:DISL:MBLA:1,2015-03-08T02:00:00Z,30.4367,-88.0117,77.98,1111122 
DISL,ioos:station:DISL:MBLA:1,2015-03-08T02:30:00Z,30.4367,-88.0117,77.74,1111122 
DISL,ioos:station:DISL:MBLA:1,2015-03-08T03:00:00Z,30.4367,-88.0117,79.57,1111122 
DISL,ioos:station:DISL:MBLA:1,2015-03-08T03:30:00Z,30.4367,-88.0117,77.88,1111122 
DISL,ioos:station:DISL:MBLA:1,2015-03-08T04:00:00Z,30.4367,-88.0117,80.5,1111122 
DISL,ioos:station:DISL:MBLA:1,2015-03-08T04:30:00Z,30.4367,-88.0117,80.4,1111122 
DISL,ioos:station:DISL:MBLA:1,2015-03-08T05:00:00Z,30.4367,-88.0117,83.6,1111122 
DISL,ioos:station:DISL:MBLA:1,2015-03-08T05:30:00Z,30.4367,-88.0117,85.9,1111122 
DISL,ioos:station:DISL:MBLA:1,2015-03-08T06:00:00Z,30.4367,-88.0117,87.9,1111122 
DISL,ioos:station:DISL:MBLA:1,2015-03-08T06:30:00Z,30.4367,-88.0117,84.2,1111122 
DISL,ioos:station:DISL:MBLA:1,2015-03-08T07:00:00Z,30.4367,-88.0117,86.5,1111122 
DISL,ioos:station:DISL:MBLA:1,2015-03-08T07:30:00Z,30.4367,-88.0117,88.2,1111122 
DISL,ioos:station:DISL:MBLA:1,2015-03-08T08:00:00Z,30.4367,-88.0117,94.8,1111122 
DISL,ioos:station:DISL:MBLA:1,2015-03-08T08:30:00Z,30.4367,-88.0117,90.5,1111122 
DISL,ioos:station:DISL:MBLA:1,2015-03-08T09:00:00Z,30.4367,-88.0117,98.5,1111122 
DISL,ioos:station:DISL:MBLA:1,2015-03-08T09:30:00Z,30.4367,-88.0117,100.0,1111122 
DISL,ioos:station:DISL:MBLA:1,2015-03-08T10:00:00Z,30.4367,-88.0117,100.0,1111122 
DISL,ioos:station:DISL:MBLA:1,2015-03-08T10:30:00Z,30.4367,-88.0117,95.0,1111122 
DISL,ioos:station:DISL:MBLA:1,2015-03-08T11:00:00Z,30.4367,-88.0117,93.6,1111122 
DISL,ioos:station:DISL:MBLA:1,2015-03-08T11:30:00Z,30.4367,-88.0117,93.9,1111122 
DISL,ioos:station:DISL:MBLA:1,2015-03-08T12:00:00Z,30.4367,-88.0117,96.9,1111122 
DISL,ioos:station:DISL:MBLA:1,2015-03-08T12:30:00Z,30.4367,-88.0117,91.4,1111122 
DISL,ioos:station:DISL:MBLA:1,2015-03-08T13:00:00Z,30.4367,-88.0117,67.3,1111122 
DISL,ioos:station:DISL:MBLA:1,2015-03-08T13:30:00Z,30.4367,-88.0117,62.85,1111122 
DISL,ioos:station:DISL:MBLA:1,2015-03-08T14:00:00Z,30.4367,-88.0117,63.46,1111122 
DISL,ioos:station:DISL:MBLA:1,2015-03-08T14:30:00Z,30.4367,-88.0117,64.87,1111122 
DISL,ioos:station:DISL:MBLA:1,2015-03-08T15:00:00Z,30.4367,-88.0117,58.18,1111122 
DISL,ioos:station:DISL:MBLA:1,2015-03-08T15:30:00Z,30.4367,-88.0117,59.42,1111122 
DISL,ioos:station:DISL:MBLA:1,2015-03-08T16:00:00Z,30.4367,-88.0117,63.86,1111122 
DISL,ioos:station:DISL:MBLA:1,2015-03-08T16:30:00Z,30.4367,-88.0117,69.24,1111122 
DISL,ioos:station:DISL:MBLA:1,2015-03-08T17:00:00Z,30.4367,-88.0117,73.17,1111122 
DISL,ioos:station:DISL:MBLA:1,2015-03-08T17:30:00Z,30.4367,-88.0117,69.54,1111122 
DISL,ioos:station:DISL:MBLA:1,2015-03-08T18:00:00Z,30.4367,-88.0117,69.06,1111122 
DISL,ioos:station:DISL:MBLA:1,2015-03-08T18:30:00Z,30.4367,-88.0117,66.28,1111122 
DISL,ioos:station:DISL:MBLA:1,2015-03-08T19:00:00Z,30.4367,-88.0117,66.32,1111122 
DISL,ioos:station:DISL:MBLA:1,2015-03-08T19:30:00Z,30.4367,-88.0117,64.25,1111122 
DISL,ioos:station:DISL:MBLA:1,2015-03-08T20:00:00Z,30.4367,-88.0117,66.29,1111122 
DISL,ioos:station:DISL:MBLA:1,2015-03-08T20:30:00Z,30.4367,-88.0117,67.13,1111122 
DISL,ioos:station:DISL:MBLA:1,2015-03-08T21:00:00Z,30.4367,-88.0117,62.62,1111122 
DISL,ioos:station:DISL:MBLA:1,2015-03-08T21:30:00Z,30.4367,-88.0117,74.08,1111122 
DISL,ioos:station:DISL:MBLA:1,2015-03-08T22:00:00Z,30.4367,-88.0117,82.5,1111122 
DISL,ioos:station:DISL:MBLA:1,2015-03-08T22:30:00Z,30.4367,-88.0117,83.3,1111122 
DISL,ioos:station:DISL:MBLA:1,2015-03-08T23:00:00Z,30.4367,-88.0117,83.7,1111122 
DISL,ioos:station:DISL:MBLA:1,2015-03-08T23:30:00Z,30.4367,-88.0117,88.1,1111122 
DISL,ioos:station:DISL:MBLA:1,2015-03-09T00:00:00Z,30.4367,-88.0117,88.3,1111122 
DISL,ioos:station:DISL:MBLA:1,2015-03-09T00:30:00Z,30.4367,-88.0117,90.6,1111122 
DISL,ioos:station:DISL:MBLA:1,2015-03-09T01:00:00Z,30.4367,-88.0117,92.5,1111122 
DISL,ioos:station:DISL:MBLA:1,2015-03-09T01:30:00Z,30.4367,-88.0117,99.2,1111122 
DISL,ioos:station:DISL:MBLA:1,2015-03-09T02:00:00Z,30.4367,-88.0117,96.6,1111122 
DISL,ioos:station:DISL:MBLA:1,2015-03-09T02:30:00Z,30.4367,-88.0117,95.4,1111122 
DISL,ioos:station:DISL:MBLA:1,2015-03-09T03:00:00Z,30.4367,-88.0117,97.9,1111122 
DISL,ioos:station:DISL:MBLA:1,2015-03-09T03:30:00Z,30.4367,-88.0117,97.7,1111122 
DISL,ioos:station:DISL:MBLA:1,2015-03-09T04:00:00Z,30.4367,-88.0117,100.0,1111122 
DISL,ioos:station:DISL:MBLA:1,2015-03-09T04:30:00Z,30.4367,-88.0117,99.2,1111122 
DISL,ioos:station:DISL:MBLA:1,2015-03-09T05:00:00Z,30.4367,-88.0117,100.0,1111122 
DISL,ioos:station:DISL:MBLA:1,2015-03-09T05:30:00Z,30.4367,-88.0117,100.0,1111122 
DISL,ioos:station:DISL:MBLA:1,2015-03-09T06:00:00Z,30.4367,-88.0117,100.0,1111122 
DISL,ioos:station:DISL:MBLA:1,2015-03-09T06:30:00Z,30.4367,-88.0117,100.0,1111122 
DISL,ioos:station:DISL:MBLA:1,2015-03-09T07:00:00Z,30.4367,-88.0117,100.0,1111122 
DISL,ioos:station:DISL:MBLA:1,2015-03-09T07:30:00Z,30.4367,-88.0117,100.0,1111122 
DISL,ioos:station:DISL:MBLA:1,2015-03-09T08:00:00Z,30.4367,-88.0117,100.0,1111122 
DISL,ioos:station:DISL:MBLA:1,2015-03-09T08:30:00Z,30.4367,-88.0117,100.0,1111122 
DISL,ioos:station:DISL:MBLA:1,2015-03-09T09:00:00Z,30.4367,-88.0117,100.0,1111122 
DISL,ioos:station:DISL:MBLA:1,2015-03-09T09:30:00Z,30.4367,-88.0117,100.0,1111122 
DISL,ioos:station:DISL:MBLA:1,2015-03-09T10:00:00Z,30.4367,-88.0117,100.0,1111122 
DISL,ioos:station:DISL:MBLA:1,2015-03-09T10:30:00Z,30.4367,-88.0117,100.0,1111122 
DISL,ioos:station:DISL:MBLA:1,2015-03-09T11:00:00Z,30.4367,-88.0117,100.0,1111122 
DISL,ioos:station:DISL:MBLA:1,2015-03-09T11:30:00Z,30.4367,-88.0117,100.0,1111122 
DISL,ioos:station:DISL:MBLA:1,2015-03-09T15:30:00Z,30.4367,-88.0117,100.0,1111122 
DISL,ioos:station:DISL:MBLA:1,2015-03-09T16:00:00Z,30.4367,-88.0117,97.6,1111122 
DISL,ioos:station:DISL:MBLA:1,2015-03-09T16:30:00Z,30.4367,-88.0117,92.4,1111122 
DISL,ioos:station:DISL:MBLA:1,2015-03-09T17:00:00Z,30.4367,-88.0117,90.4,1111122 
DISL,ioos:station:DISL:MBLA:1,2015-03-09T17:30:00Z,30.4367,-88.0117,89.0,1111122 
DISL,ioos:station:DISL:MBLA:1,2015-03-09T18:00:00Z,30.4367,-88.0117,87.7,1111122 
DISL,ioos:station:DISL:MBLA:1,2015-03-09T18:30:00Z,30.4367,-88.0117,88.5,1111122 
DISL,ioos:station:DISL:MBLA:1,2015-03-09T19:00:00Z,30.4367,-88.0117,84.6,1111122 
DISL,ioos:station:DISL:MBLA:1,2015-03-09T19:30:00Z,30.4367,-88.0117,88.4,1111122 
DISL,ioos:station:DISL:MBLA:1,2015-03-09T20:00:00Z,30.4367,-88.0117,90.6,1111122 
DISL,ioos:station:DISL:MBLA:1,2015-03-09T20:30:00Z,30.4367,-88.0117,97.0,1111122 
DISL,ioos:station:DISL:MBLA:1,2015-03-09T21:00:00Z,30.4367,-88.0117,99.7,1111122 
DISL,ioos:station:DISL:MBLA:1,2015-03-09T21:30:00Z,30.4367,-88.0117,100.0,1111122 
DISL,ioos:station:DISL:MBLA:1,2015-03-09T22:00:00Z,30.4367,-88.0117,100.0,1111122 
DISL,ioos:station:DISL:MBLA:1,2015-03-09T22:30:00Z,30.4367,-88.0117,100.0,1111122 
DISL,ioos:station:DISL:MBLA:1,2015-03-14T13:30:00Z,30.4367,-88.0117,100.0,1111122 
DISL,ioos:station:DISL:MBLA:1,2015-03-14T14:00:00Z,30.4367,-88.0117,100.0,1111122 
DISL,ioos:station:DISL:MBLA:1,2015-03-14T14:30:00Z,30.4367,-88.0117,100.0,1111122 
DISL,ioos:station:DISL:MBLA:1,2015-03-14T15:00:00Z,30.4367,-88.0117,100.0,1111122 
DISL,ioos:station:DISL:MBLA:1,2015-03-14T15:30:00Z,30.4367,-88.0117,96.9,1111122 
DISL,ioos:station:DISL:MBLA:1,2015-03-14T16:00:00Z,30.4367,-88.0117,100.0,1111122 
DISL,ioos:station:DISL:MBLA:1,2015-03-14T16:30:00Z,30.4367,-88.0117,100.0,1111122 
DISL,ioos:station:DISL:MBLA:1,2015-03-14T17:00:00Z,30.4367,-88.0117,100.0,1111122 
DISL,ioos:station:DISL:MBLA:1,2015-03-14T17:30:00Z,30.4367,-88.0117,99.4,1111122 
DISL,ioos:station:DISL:MBLA:1,2015-03-14T18:00:00Z,30.4367,-88.0117,96.9,1111122 
DISL,ioos:station:DISL:MBLA:1,2015-03-14T18:30:00Z,30.4367,-88.0117,96.9,1111122 
DISL,ioos:station:DISL:MBLA:1,2015-03-14T19:00:00Z,30.4367,-88.0117,98.2,1111122 
DISL,ioos:station:DISL:MBLA:1,2015-03-14T19:30:00Z,30.4367,-88.0117,96.2,1111122 
DISL,ioos:station:DISL:MBLA:1,2015-03-14T20:00:00Z,30.4367,-88.0117,97.5,1111122 
DISL,ioos:station:DISL:MBLA:1,2015-03-14T20:30:00Z,30.4367,-88.0117,96.2,1111122 
DISL,ioos:station:DISL:MBLA:1,2015-03-14T21:00:00Z,30.4367,-88.0117,95.6,1111122 
DISL,ioos:station:DISL:MBLA:1,2015-03-14T21:30:00Z,30.4367,-88.0117,97.8,1111122 
DISL,ioos:station:DISL:MBLA:1,2015-03-14T22:00:00Z,30.4367,-88.0117,97.1,1111122 
DISL,ioos:station:DISL:MBLA:1,2015-03-14T22:30:00Z,30.4367,-88.0117,98.4,1111122 
DISL,ioos:station:DISL:MBLA:1,2015-03-14T23:00:00Z,30.4367,-88.0117,100.0,1111122 
DISL,ioos:station:DISL:MBLA:1,2015-03-14T23:30:00Z,30.4367,-88.0117,97.8,1111122 
DISL,ioos:station:DISL:MBLA:1,2015-03-15T00:00:00Z,30.4367,-88.0117,96.8,1111122 
DISL,ioos:station:DISL:MBLA:1,2015-03-15T00:30:00Z,30.4367,-88.0117,99.1,1111122 
DISL,ioos:station:DISL:MBLA:1,2015-03-15T01:00:00Z,30.4367,-88.0117,100.0,1111122 
DISL,ioos:station:DISL:MBLA:1,2015-03-15T01:30:00Z,30.4367,-88.0117,100.0,1111122 
DISL,ioos:station:DISL:MBLA:1,2015-03-15T02:00:00Z,30.4367,-88.0117,100.0,1111122 
DISL,ioos:station:DISL:MBLA:1,2015-03-15T02:30:00Z,30.4367,-88.0117,98.0,1111122 
DISL,ioos:station:DISL:MBLA:1,2015-03-15T03:00:00Z,30.4367,-88.0117,97.7,1111122 
DISL,ioos:station:DISL:MBLA:1,2015-03-15T03:30:00Z,30.4367,-88.0117,98.5,1111122 
DISL,ioos:station:DISL:MBLA:1,2015-03-15T04:00:00Z,30.4367,-88.0117,99.7,1111122 
DISL,ioos:station:DISL:MBLA:1,2015-03-15T04:30:00Z,30.4367,-88.0117,100.0,1111122 
DISL,ioos:station:DISL:MBLA:1,2015-03-15T05:00:00Z,30.4367,-88.0117,100.0,1111122 
DISL,ioos:station:DISL:MBLA:1,2015-03-15T05:30:00Z,30.4367,-88.0117,100.0,1111122 
DISL,ioos:station:DISL:MBLA:1,2015-03-15T06:00:00Z,30.4367,-88.0117,100.0,1111122 
DISL,ioos:station:DISL:MBLA:1,2015-03-15T06:30:00Z,30.4367,-88.0117,100.0,1111122 
DISL,ioos:station:DISL:MBLA:1,2015-03-15T07:00:00Z,30.4367,-88.0117,100.0,1111122 
DISL,ioos:station:DISL:MBLA:1,2015-03-15T07:30:00Z,30.4367,-88.0117,100.0,1111122 
DISL,ioos:station:DISL:MBLA:1,2015-03-15T08:00:00Z,30.4367,-88.0117,100.0,1111122 
DISL,ioos:station:DISL:MBLA:1,2015-03-15T16:00:00Z,30.4367,-88.0117,100.0,1111122 
DISL,ioos:station:DISL:MBLA:1,2015-03-15T16:30:00Z,30.4367,-88.0117,100.0,1111122 
DISL,ioos:station:DISL:MBLA:1,2015-03-15T17:00:00Z,30.4367,-88.0117,94.8,1111122 
DISL,ioos:station:DISL:MBLA:1,2015-03-15T17:30:00Z,30.4367,-88.0117,93.0,1111122 
DISL,ioos:station:DISL:MBLA:1,2015-03-15T18:00:00Z,30.4367,-88.0117,96.3,1111122 
DISL,ioos:station:DISL:MBLA:1,2015-03-15T18:30:00Z,30.4367,-88.0117,98.5,1111122 
DISL,ioos:station:DISL:MBLA:1,2015-03-15T19:00:00Z,30.4367,-88.0117,99.0,1111122 
DISL,ioos:station:DISL:MBLA:1,2015-03-15T19:30:00Z,30.4367,-88.0117,98.2,1111122 
DISL,ioos:station:DISL:MBLA:1,2015-03-15T20:00:00Z,30.4367,-88.0117,96.6,1111122 
DISL,ioos:station:DISL:MBLA:1,2015-03-15T20:30:00Z,30.4367,-88.0117,91.7,1111122 
DISL,ioos:station:DISL:MBLA:1,2015-03-15T21:00:00Z,30.4367,-88.0117,92.6,1111122 
DISL,ioos:station:DISL:MBLA:1,2015-03-15T21:30:00Z,30.4367,-88.0117,92.5,1111122 
DISL,ioos:station:DISL:MBLA:1,2015-03-15T22:00:00Z,30.4367,-88.0117,89.7,1111122 
DISL,ioos:station:DISL:MBLA:1,2015-03-15T22:30:00Z,30.4367,-88.0117,100.0,1111122 
DISL,ioos:station:DISL:MBLA:1,2015-03-15T23:00:00Z,30.4367,-88.0117,94.6,1111122 
DISL,ioos:station:DISL:MBLA:1,2015-03-15T23:30:00Z,30.4367,-88.0117,95.0,1111122 
DISL,ioos:station:DISL:MBLA:1,2015-03-16T00:00:00Z,30.4367,-88.0117,90.7,1111122 
DISL,ioos:station:DISL:MBLA:1,2015-03-16T00:30:00Z,30.4367,-88.0117,89.4,1111122 
DISL,ioos:station:DISL:MBLA:1,2015-03-16T01:00:00Z,30.4367,-88.0117,91.0,1111122 
DISL,ioos:station:DISL:MBLA:1,2015-03-16T01:30:00Z,30.4367,-88.0117,93.5,1111122 
DISL,ioos:station:DISL:MBLA:1,2015-03-16T02:00:00Z,30.4367,-88.0117,90.6,1111122 
DISL,ioos:station:DISL:MBLA:1,2015-03-16T02:30:00Z,30.4367,-88.0117,91.3,1111122 
DISL,ioos:station:DISL:MBLA:1,2015-03-16T03:00:00Z,30.4367,-88.0117,94.2,1111122 
DISL,ioos:station:DISL:MBLA:1,2015-03-16T03:30:00Z,30.4367,-88.0117,100.0,1111122 
DISL,ioos:station:DISL:MBLA:1,2015-03-16T04:00:00Z,30.4367,-88.0117,93.3,1111122 
DISL,ioos:station:DISL:MBLA:1,2015-03-16T04:30:00Z,30.4367,-88.0117,88.3,1111122 
DISL,ioos:station:DISL:MBLA:1,2015-03-16T05:00:00Z,30.4367,-88.0117,90.6,1111122 
DISL,ioos:station:DISL:MBLA:1,2015-03-16T05:30:00Z,30.4367,-88.0117,91.0,1111122 
DISL,ioos:station:DISL:MBLA:1,2015-03-16T06:00:00Z,30.4367,-88.0117,92.2,1111122 
DISL,ioos:station:DISL:MBLA:1,2015-03-16T06:30:00Z,30.4367,-88.0117,91.5,1111122 
DISL,ioos:station:DISL:MBLA:1,2015-03-16T07:00:00Z,30.4367,-88.0117,90.0,1111122 
DISL,ioos:station:DISL:MBLA:1,2015-03-16T07:30:00Z,30.4367,-88.0117,92.4,1111122 
DISL,ioos:station:DISL:MBLA:1,2015-03-16T08:00:00Z,30.4367,-88.0117,100.0,1111122 
DISL,ioos:station:DISL:MBLA:1,2015-03-16T08:30:00Z,30.4367,-88.0117,100.0,1111122 
DISL,ioos:station:DISL:MBLA:1,2015-03-16T09:00:00Z,30.4367,-88.0117,100.0,1111122 
DISL,ioos:station:DISL:MBLA:1,2015-03-16T09:30:00Z,30.4367,-88.0117,99.6,1111122 
DISL,ioos:station:DISL:MBLA:1,2015-03-16T10:00:00Z,30.4367,-88.0117,100.0,1111122 